Maxwell AFB, AL

9:50 PM CDT on July 27, 2017 (GMT -0500)
Maxwell Air Force Base

Weather History for KMXF - July, 2013

Change the Weather History Date:

Wednesday, July 24, 2013

  Actual Average Record
Temperature  
Mean Temperature 76 °F -  
Max Temperature 84 °F 91 °F 98 °F (2010)
Min Temperature 69 °F 72 °F 69 °F (2000)
Cooling Degree Days 12    
Growing Degree Days 26 (Base 50)    
Moisture  
Dew Point 70 °F    
Average Humidity 82    
Maximum Humidity 94    
Minimum Humidity 68    
Precipitation  
Precipitation 0.57 in - - ()
Sea Level Pressure  
Sea Level Pressure 29.90 in    
Wind  
Wind Speed 4 mph (WSW)    
Max Wind Speed 12 mph    
Max Gust Speed -    
Visibility 9 miles    
Events Rain , Thunderstorm    
Averages and records for this station are not official NWS values.
T = Trace of Precipitation, MM = Missing Value Source: NWS Daily Summary

Daily Weather History Graph

Daily Weather History Graph

Search for Another Location

Airport or City:

Trip Planner

Search our weather history database for the weather conditions in past years. The results will help you decide how hot, cold, wet, or windy it might be!

Date:

Astronomy

Jul. 24, 2013 Rise Set
Actual Time 5:54 AM CDT 7:48 PM CDT
Civil Twilight 5:27 AM CDT 8:15 PM CDT
Nautical Twilight 4:54 AM CDT 8:48 PM CDT
Astronomical Twilight 4:19 AM CDT 9:23 PM CDT
Moon 9:07 PM CDT (7/24) 8:03 AM CDT (7/24)
Length of Visible Light 14h 48m
Length of Day
13h 53m
Waning Gibbous, 94% of the Moon is Illuminated
Jul 24
Waning Gibbous
Jul 29
Last Quarter
Aug 6
New
Aug 14
First Quarter
Aug 20
Full

Hourly Weather History & Observations

Time (CDT) Temp. Heat Index Dew Point Humidity Pressure Visibility Wind Dir Wind Speed Gust Speed Precip Events Conditions
12:28 AM 69.8 °F - 68.0 °F 94% 29.93 in 10.0 mi SW 3.5 mph - N/A   Mostly Cloudy
12:33 AM 69.8 °F - 68.0 °F 94% 29.93 in 10.0 mi SSW 2.3 mph - N/A   Mostly Cloudy
12:53 AM 69.8 °F - 68.0 °F 94% 29.93 in 10.0 mi SW 1.2 mph - N/A   Mostly Cloudy
12:58 AM 70.3 °F - 68.0 °F 92% 29.94 in 10.0 mi SSW 2.3 mph - N/A   Mostly Cloudy
1:03 AM 69.8 °F - 68.0 °F 94% 29.92 in 10.0 mi SW 2.3 mph - N/A   Mostly Cloudy
1:58 AM 70.2 °F - 67.8 °F 92% 29.92 in 10.0 mi SSW 2.3 mph - N/A   Mostly Cloudy
2:58 AM 70.0 °F - 67.6 °F 92% 29.90 in 10.0 mi SSW 2.3 mph - N/A   Scattered Clouds
3:58 AM 70.0 °F - 67.3 °F 91% 29.91 in 10.0 mi Calm Calm - N/A   Mostly Cloudy
4:58 AM 69.8 °F - 67.1 °F 91% 29.92 in 10.0 mi Calm Calm - N/A   Partly Cloudy
5:58 AM 69.4 °F - 67.1 °F 92% 29.91 in 10.0 mi South 2.3 mph - N/A   Partly Cloudy
6:14 AM 69.8 °F - 68.0 °F 94% 29.90 in 10.0 mi SE 2.3 mph - N/A   Light Drizzle
6:24 AM 69.8 °F - 68.0 °F 94% 29.89 in 10.0 mi South 5.8 mph - N/A   Partly Cloudy
6:58 AM 70.3 °F - 67.6 °F 91% 29.91 in 10.0 mi Calm Calm - 0.00 in   Mostly Cloudy
7:58 AM 72.0 °F - 68.2 °F 88% 29.93 in 10.0 mi Variable 1.2 mph - N/A   Scattered Clouds
8:13 AM 73.4 °F - 68.0 °F 83% 29.92 in 10.0 mi NW 1.2 mph - N/A   Mostly Cloudy
8:28 AM 73.4 °F - 68.0 °F 83% 29.92 in 10.0 mi WNW 2.3 mph - N/A   Scattered Clouds
8:58 AM 74.1 °F - 68.2 °F 82% 29.92 in 10.0 mi Variable 1.2 mph - N/A   Partly Cloudy
9:33 AM 77.0 °F - 69.8 °F 78% 29.91 in 10.0 mi Calm Calm - N/A   Mostly Cloudy
9:53 AM 77.0 °F - 69.8 °F 78% 29.91 in 10.0 mi Variable 3.5 mph - N/A   Overcast
9:58 AM 77.4 °F - 69.4 °F 76% 29.92 in 10.0 mi Variable 2.3 mph - N/A   Overcast
10:58 AM 78.1 °F - 70.5 °F 77% 29.93 in 10.0 mi West 5.8 mph - N/A   Overcast
11:58 AM 81.0 °F 85.1 °F 71.4 °F 73% 29.93 in 10.0 mi Variable 3.5 mph - N/A   Overcast
12:03 PM 82.4 °F 87.2 °F 71.6 °F 70% 29.91 in 10.0 mi Variable 1.2 mph - N/A   Overcast
12:33 PM 82.4 °F 87.2 °F 71.6 °F 70% 29.91 in 10.0 mi Variable 2.3 mph - N/A   Overcast
12:43 PM 82.4 °F 87.2 °F 71.6 °F 70% 29.90 in 10.0 mi WNW 2.3 mph - N/A   Overcast
12:48 PM 82.4 °F 87.2 °F 71.6 °F 70% 29.90 in 10.0 mi North 5.8 mph - N/A   Overcast
12:58 PM 83.1 °F 88.4 °F 72.1 °F 69% 29.91 in 10.0 mi North 6.9 mph - N/A   Mostly Cloudy
1:07 PM 84.2 °F 90.9 °F 73.4 °F 70% 29.89 in 10.0 mi NNW 4.6 mph - N/A   Light Drizzle
1:16 PM 84.2 °F 90.9 °F 73.4 °F 70% 29.89 in 10.0 mi Variable 3.5 mph - N/A   Scattered Clouds
1:54 PM 82.4 °F 88.2 °F 73.4 °F 74% 29.88 in 10.0 mi NNE 5.8 mph - N/A   Light Drizzle
1:58 PM 83.3 °F 89.3 °F 73.0 °F 71% 29.89 in 10.0 mi NE 4.6 mph - 0.00 in   Light Drizzle
2:05 PM 82.4 °F 88.2 °F 73.4 °F 74% 29.88 in 10.0 mi North 6.9 mph - N/A   Mostly Cloudy
2:07 PM 82.4 °F 88.2 °F 73.4 °F 74% 29.89 in 2.5 mi NW 6.9 mph - N/A Rain , Thunderstorm Light Thunderstorms and Rain
2:10 PM 82.4 °F 88.2 °F 73.4 °F 74% 29.88 in 0.2 mi WNW 5.8 mph - N/A Rain , Thunderstorm Heavy Thunderstorms and Rain
2:13 PM 80.6 °F 85.4 °F 73.4 °F 79% 29.88 in 0.8 mi NW 4.6 mph - N/A Rain , Thunderstorm Heavy Thunderstorms and Rain
2:18 PM 78.8 °F - 71.6 °F 78% 29.87 in 2.5 mi WNW 4.6 mph - N/A Rain , Thunderstorm Light Thunderstorms and Rain
2:27 PM 78.8 °F - 69.8 °F 74% 29.87 in 6.0 mi NW 4.6 mph - N/A Rain Light Rain
2:31 PM 78.8 °F - 71.6 °F 78% 29.87 in 9.0 mi NNW 4.6 mph - N/A   Scattered Clouds
2:58 PM 81.7 °F 85.4 °F 70.0 °F 68% 29.88 in 10.0 mi NNW 3.5 mph - 0.25 in   Partly Cloudy
3:58 PM 83.1 °F 88.9 °F 73.0 °F 71% 29.87 in 10.0 mi South 9.2 mph - N/A   Partly Cloudy
4:03 PM 80.6 °F 85.4 °F 73.4 °F 79% 29.85 in 10.0 mi South 10.4 mph - N/A Thunderstorm Thunderstorm
4:08 PM 80.6 °F 85.4 °F 73.4 °F 79% 29.85 in 10.0 mi South 8.1 mph - N/A Rain , Thunderstorm Light Thunderstorms and Rain
4:18 PM 78.8 °F - 73.4 °F 83% 29.85 in 10.0 mi SSW 4.6 mph - N/A Rain , Thunderstorm Light Rain
4:24 PM 78.8 °F - 73.4 °F 83% 29.85 in 10.0 mi SSW 5.8 mph - N/A Rain , Thunderstorm Light Thunderstorms and Rain
4:39 PM 78.8 °F - 73.4 °F 83% 29.87 in 10.0 mi SSW 6.9 mph - N/A Rain Light Rain
4:40 PM 78.8 °F - 73.4 °F 83% 29.88 in 10.0 mi SSW 8.1 mph - N/A   Partly Cloudy
4:58 PM 77.5 °F - 72.5 °F 84% 29.89 in 10.0 mi SSW 8.1 mph - 0.01 in   Scattered Clouds
5:01 PM 77.0 °F - 71.6 °F 83% 29.88 in 10.0 mi SSW 8.1 mph - N/A Thunderstorm Scattered Clouds
5:16 PM 75.2 °F - 68.0 °F 78% 29.89 in 10.0 mi SW 6.9 mph - N/A   Scattered Clouds
5:35 PM 73.4 °F - 68.0 °F 83% 29.89 in 10.0 mi West 5.8 mph - N/A Rain Light Rain
5:39 PM 73.4 °F - 68.0 °F 83% 29.89 in 10.0 mi Variable 3.5 mph - N/A Rain , Thunderstorm Light Thunderstorms and Rain
5:58 PM 73.4 °F - 68.0 °F 83% 29.90 in 7.0 mi West 8.1 mph - 0.00 in Rain , Thunderstorm Thunderstorms and Rain
6:17 PM 73.4 °F - 69.8 °F 88% 29.90 in 2.0 mi WNW 11.5 mph - N/A Rain , Thunderstorm Heavy Thunderstorms and Rain
6:19 PM 73.4 °F - 69.8 °F 88% 29.90 in 1.8 mi WNW 9.2 mph - N/A Rain , Thunderstorm Heavy Thunderstorms and Rain
6:20 PM 73.4 °F - 69.8 °F 88% 29.90 in 1.5 mi WNW 8.1 mph - N/A Rain , Thunderstorm Heavy Thunderstorms and Rain
6:25 PM 73.4 °F - 69.8 °F 88% 29.90 in 1.8 mi West 10.4 mph - N/A Rain Heavy Rain
6:30 PM 73.4 °F - 68.0 °F 83% 29.90 in 2.0 mi WSW 8.1 mph - N/A Rain Heavy Rain
6:40 PM 73.4 °F - 68.0 °F 83% 29.90 in 4.0 mi WSW 8.1 mph - N/A Rain Light Rain
6:58 PM 73.0 °F - 68.7 °F 86% 29.91 in 6.0 mi Variable 3.5 mph - 0.26 in Rain Rain
7:58 PM 73.6 °F - 69.1 °F 86% 29.93 in 10.0 mi North 1.2 mph - 0.05 in   Light Drizzle
8:07 PM 73.4 °F - 69.8 °F 88% 29.90 in 10.0 mi WSW 3.5 mph - N/A   Clear
8:58 PM 73.0 °F - 69.4 °F 88% 29.90 in 10.0 mi NW 6.9 mph - 0.00 in   Partly Cloudy
9:58 PM 73.2 °F - 69.8 °F 89% 29.89 in 10.0 mi Variable 1.2 mph - N/A   Mostly Cloudy
10:58 PM 73.4 °F - 70.0 °F 89% 29.90 in 10.0 mi Calm Calm - N/A   Mostly Cloudy
11:58 PM 73.4 °F - 70.3 °F 90% 29.92 in 10.0 mi SW 1.2 mph - N/A   Mostly Cloudy